Regional Weather Roundup
Issued by NWS

Home | Current Version | Previous Version | Text Only | Print | Product List | Glossary On
Versions: 1 2 3 4 5 6 7 8 9 10 11 12 13 14 15 16 17 18 19 20 21 22 23 24 25 26 27 28 29 30 31 32 33 34 35 36 37 38 39 40 41 42 43 44 45 46 47 48 49 50
000
ASUS43 KTOP 192008
RWRKS

WEATHER ROUNDUP FOR KANSAS
NATIONAL WEATHER SERVICE GOODLAND KS
200 PM CST FRI DEC 19 2014

NOTE:  "FAIR" INDICATES FEW OR NO CLOUDS BELOW 12,000 FEET WITH NO
SIGNIFICANT WEATHER AND/OR OBSTRUCTIONS TO VISIBILITY.

KSZ001>006-013>018-027>032-041>047-192100-
NORTHWEST KANSAS

CITY           SKY/WX    TMP DP  RH WIND       PRES   REMARKS
GOODLAND       SUNNY     48  24  39 W9        30.06F
HAYS           SUNNY     45  30  57 SW14      30.10F
HILL CITY      SUNNY     48  27  44 VRB5      30.08F
RUSSELL        MOSUNNY   41  36  82 S15       30.10F
$$

KSZ061>065-074>080-084>089-192100-
SOUTHWEST KANSAS

CITY           SKY/WX    TMP DP  RH WIND       PRES   REMARKS
DODGE CITY     CLOUDY    41  34  76 SW8       30.12F
ELKHART          N/A    N/A N/A N/A MISG        N/A
GARDEN CITY    SUNNY     44  33  65 SW10      30.09F
GREAT BEND     CLOUDY    36  30  80 S10       30.15F WCI  28
LIBERAL        CLOUDY    39  34  81 SW7       30.13F
PRATT          CLOUDY    37  34  87 SW12      30.17F WCI  30
$$

KSZ066>073-081>083-090>101-192100-
SOUTHEAST KANSAS

CITY           SKY/WX    TMP DP  RH WIND       PRES   REMARKS
CHANUTE        CLOUDY    35  34  96 N6        30.21F FOG
COFFEYVILLE    CLOUDY    38  34  85 N5        30.21F
HUTCHINSON     CLOUDY    37  32  82 S6        30.17F
MEDICINE LODGE   N/A     38  34  85 SW7       30.17F
NEWTON         CLOUDY    34  27  75 S3        30.19F
PARSONS        CLOUDY    38  35  89 VRB5      30.22F
WICHITA INTL   CLOUDY    35  31  85 S3        30.19F
WICHITA JABRA  CLOUDY    34  30  85 CALM      30.19F
WICHITA MCCONL CLOUDY    35  30  85 SW1       30.19F
WINFIELD       CLOUDY    38  32  79 NW3       30.20F
$$

KSZ007>012-019>026-033>040-048>060-102>105-192100-
NORTHEAST KANSAS

CITY           SKY/WX    TMP DP  RH WIND       PRES   REMARKS
CONCORDIA      CLOUDY    32  30  92 S10       30.15F WCI  24
EMPORIA        CLOUDY    33  28  81 CALM      30.20F
LAWRENCE       CLOUDY    33  28  81 SE3       30.23F
MANHATTAN      CLOUDY    33  30  88 S5        30.20F
MARYSVILLE     CLOUDY    32  32 100 S8        30.17F
OLATHE IND     CLOUDY    33  29  85 CALM      30.22F
OLATHE EXE     CLOUDY    33  30  88 S3        30.21F
SALINA         CLOUDY    34  30  85 S8        30.18F
TOPEKA BILLARD CLOUDY    32  28  85 SW5       30.23F
TOPEKA FORBES  CLOUDY    32  28  85 W6        30.21F
$$


USA.gov is the U.S. government's official web portal to all federal, state and local government web resources and services.